Аэропорт
Уйташ (URML)

 URML / MCX
ЗЦ Ростов-на-Дону
Ростов-на-Дону (URRV)
Ростов-на-Дону (URRV)
 42.81680, 47.65230  / 12 ft

 URML 291800Z 04002MPS 310V110 9999 NSC 19/15 Q1004 R14/01//70 BECMG 31008G18MPS RMK QFE753/1004
 TAF URML 291400Z 2915/2924 15007G14MPS 9999 SCT016 SCT030CB TEMPO 2915/2918 VRB15G26MPS 4000 -TSRA SCT007 SCT016CB BECMG 2918/2920 33007G14MPS TEMPO 2920/2924 VRB17G26MPS -TSRA SCT007 BKN016CB
показать схемы

Аэропорт Махачкалы — Уйташ

 

 

Аэропорт Уйташ имени дважды Героя Советского Союза Амет-Хана Султана — аэропорт города Махачкала, столицы Дагестана, основной аэропорт республики. Аэропорт расположен в 4,5 км от города Каспийска и в 16,2 км от ближайшего микрорайона Махачкалы. Аэропорт Уйташ — первого класса, помимо гражданской авиации, используется авиацией ФСБ РФ и МВД РФ.

ВПП 14/32, 2640х45м, асфальтобетон.

Аэродром Уйташ способен принимать самолёты:
Airbus A320, Boeing 757, Ил-86
и все более легкие,
принимает вертолёты всех типов.

Максимальный взлетный вес воздушного судна 150 т.

 

Аэропорт Махачкалы обслуживают авиакомпании SCAT, Газпромавиа, РусЛайн, ВИМ-Авиа, ЮТэйр, Red Wings.



2020 © VATRUS division (Privacy Policy)